Regional Weather Roundup
Issued by NWS

Home | Current Version | Previous Version | Text Only | Print | Product List | Glossary Off
Versions: 1 2 3 4 5 6 7 8 9 10 11 12 13 14 15 16 17 18 19 20 21 22 23 24 25 26 27 28 29 30 31 32 33 34 35 36 37 38 39 40 41 42 43 44 45 46 47 48 49

000
ASUS45 KSLC 261910
RWRUT

UTAH REGIONAL WEATHER ROUNDUP
NATIONAL WEATHER SERVICE SALT LAKE CITY UT
1200 PM MST THU FEB 26 2015

UTZ001>011-023>025-262000-

NORTHERN UTAH

CITY           SKY/WX    TMP DP  RH WIND       PRES   REMARKS
BRIGHAM CITY   CLOUDY    39  26  60 CALM      29.98F
HILL AFB       CLOUDY    34  32  92 SW2       29.96F FOG
LOGAN          CLOUDY    37  24  59 NW6       29.98S WCI  32
OGDEN          CLOUDY    36  28  73 CALM      29.97F
PROVO AIRPORT  LGT SNOW  36  30  80 SE6       30.00S WCI  31
SALT LAKE CITY SNOW      34  33  96 N6        29.98F VSB 1/2 WCI  29
VERNAL         CLOUDY    34  15  46 CALM      29.97F
WENDOVER       CLOUDY    41  30  65 W3        30.00F
HEBER CITY     CLOUDY    34  27  75 W6        29.94F WCI  29
WEST JORDAN    CLOUDY    34  34 100 NE3       29.98F

$$

UTZ012>022-026-027-262000-

SOUTHERN/CENTRAL UTAH

CITY           SKY/WX    TMP DP  RH WIND       PRES   REMARKS
BLANDING       PTSUNNY   36  23  57 SW7       30.04S WCI  31
BRYCE CANYON   CLOUDY    34  18  52 N8        29.93F WCI  27
CEDAR CITY     PTSUNNY   44  22  41 SE9       29.92F
DELTA          CLOUDY    43  19  37 N9        29.95F
HANKSVILLE     CLOUDY    45  23  42 E3        29.97F
MILFORD        CLOUDY    45  19  35 NE6       29.93F
MOAB/CYNLANDS  PTSUNNY   42  15  33 SE6       29.95F
PRICE          CLOUDY    37  15  40 SE3       29.94F
ST GEORGE      CLOUDY    48  32  53 S10       29.93F
KANAB          PTSUNNY   45  30  57 S7        29.95F

$$

REGIONAL REPORTS     COLORADO/ARIZONA

CITY           SKY/WX    TMP DP  RH WIND       PRES   REMARKS
CRAIG, CO        N/A     27  18  69 VRB3      29.99F
GRAND JUNCTION MOSUNNY   39  18  42 SE14      29.96F WCI  31
RIFLE          SUNNY     36  13  38 SE3       29.96F
MONTROSE       CLOUDY    30  19  63 NE5       29.99F WCI  25
CORTEZ         SUNNY     34  17  50 CALM      29.97F
PAGE, AZ       CLOUDY    47  25  42 N3        29.92F
GRAND CANYON   CLOUDY    43  24  47 SW7       29.95F
KINGMAN          N/A     64  19  17 SW17G25   29.91F
FLAGSTAFF      CLOUDY    41  17  38 SW15      29.97F

$$

REGIONAL REPORTS    NEVADA/IDAHO/WYOMING

CITY           SKY/WX    TMP DP  RH WIND       PRES   REMARKS
LAS VEGAS, NV  MOSUNNY   64  25  22 VRB6      29.87F
ELY            CLOUDY    38  25  59 NW18      29.98F WCI  28
ELKO           CLOUDY    42  26  53 NW17      30.02F
POCATELLO, ID  MOSUNNY   40  16  37 NE7       30.00F
BURLEY         MOSUNNY   41  15  35 CALM      30.01F
EVANSTON, WY   CLOUDY    28  18  66 E7        29.91F WCI  21
ROCK SPRINGS   LGT SNOW  20  15  81 E14       29.97F VSB 1   WCI   7

$$


USA.gov is the U.S. government's official web portal to all federal, state and local government web resources and services.